Huntsville Madison, AL

1:49 PM CDT on June 23, 2017 (GMT -0500)
Huntsville Madison

Weather History for KMDQ - March, 2012

Change the Weather History Date:

Tuesday, March 6, 2012

  Actual Average (KHSV) Record (KHSV)
Temperature  
Mean Temperature 47 °F -  
Max Temperature 64 °F 58 °F 82 °F (1910)
Min Temperature 30 °F 37 °F 16 °F (2015)
Degree Days  
Heating Degree Days 18    
Moisture  
Dew Point 25 °F    
Average Humidity 45    
Maximum Humidity 100    
Minimum Humidity 23    
Precipitation  
Precipitation 0.00 in - - ()
Sea Level Pressure  
Sea Level Pressure 30.42 in    
Wind  
Wind Speed 6 mph (SSE)    
Max Wind Speed 16 mph    
Max Gust Speed 23 mph    
Visibility 10 miles    
Events      
Averages and records for this station are not official NWS values.
T = Trace of Precipitation, MM = Missing Value Source: NWS Daily Summary

Daily Weather History Graph

Daily Weather History Graph

Search for Another Location

Airport or City:

Trip Planner

Search our weather history database for the weather conditions in past years. The results will help you decide how hot, cold, wet, or windy it might be!

Date:

Astronomy

Mar. 06, 2012 Rise Set
Actual Time 6:08 AM CST 5:46 PM CST
Civil Twilight 5:43 AM CST 6:12 PM CST
Nautical Twilight 5:13 AM CST 6:41 PM CST
Astronomical Twilight 4:44 AM CST 7:10 PM CST
Moon 4:14 PM CST (3/6) 4:40 AM CST (3/6)
Length of Visible Light 12h 28m
Length of Day
11h 38m
Waxing Gibbous, 96% of the Moon is Illuminated
Mar 6
Waxing Gibbous
Mar 8
Full
Mar 14
Last Quarter
Mar 22
New
Mar 30
First Quarter

Hourly Weather History & Observations

Time (CST) Temp. Windchill Dew Point Humidity Pressure Visibility Wind Dir Wind Speed Gust Speed Precip Events Conditions
12:35 AM 32.0 °F - 30.2 °F 93% 30.44 in 10.0 mi Calm Calm - N/A   Clear
12:55 AM 32.0 °F - 30.2 °F 93% 30.44 in 10.0 mi Calm Calm - N/A   Clear
1:15 AM 32.0 °F 28.7 °F 32.0 °F 100% 30.44 in 10.0 mi ESE 3.5 mph - N/A   Clear
1:35 AM 32.0 °F - 30.2 °F 93% 30.44 in 10.0 mi Calm Calm - N/A   Clear
1:55 AM 30.2 °F - 30.2 °F 100% 30.44 in 10.0 mi Calm Calm - N/A   Clear
2:35 AM 30.2 °F - 30.2 °F 100% 30.44 in 10.0 mi Calm Calm - N/A   Clear
2:55 AM 32.0 °F - 30.2 °F 93% 30.43 in 10.0 mi Calm Calm - N/A   Clear
3:15 AM 32.0 °F - 28.4 °F 87% 30.43 in 10.0 mi Calm Calm - N/A   Clear
3:35 AM 35.6 °F 31.7 °F 24.8 °F 65% 30.43 in 10.0 mi SSE 4.6 mph - N/A   Clear
4:35 AM 37.4 °F 32.1 °F 23.0 °F 56% 30.43 in 10.0 mi SE 6.9 mph - N/A   Clear
4:55 AM 37.4 °F 32.1 °F 23.0 °F 56% 30.44 in 10.0 mi SE 6.9 mph - N/A   Clear
5:35 AM 37.4 °F 32.1 °F 23.0 °F 56% 30.44 in 10.0 mi SE 6.9 mph - N/A   Clear
5:55 AM 37.4 °F 32.8 °F 23.0 °F 56% 30.45 in 10.0 mi SE 5.8 mph - N/A   Clear
6:15 AM 37.4 °F 31.4 °F 23.0 °F 56% 30.45 in 10.0 mi SSE 8.1 mph - N/A   Clear
6:35 AM 37.4 °F 32.1 °F 23.0 °F 56% 30.45 in 10.0 mi SSE 6.9 mph - N/A   Clear
6:55 AM 39.2 °F 35.0 °F 23.0 °F 52% 30.46 in 10.0 mi SSE 5.8 mph - N/A   Clear
7:35 AM 42.8 °F 36.6 °F 21.2 °F 42% 30.46 in 10.0 mi SSE 11.5 mph 17.3 mph N/A   Clear
7:55 AM 44.6 °F 37.4 °F 21.2 °F 39% 30.47 in 10.0 mi SE 16.1 mph 23.0 mph N/A   Clear
8:15 AM 44.6 °F 37.8 °F 21.2 °F 39% 30.47 in 10.0 mi SSE 15.0 mph 19.6 mph N/A   Clear
8:35 AM 46.4 °F 41.5 °F 21.2 °F 37% 30.48 in 10.0 mi SSE 10.4 mph 18.4 mph N/A   Clear
8:55 AM 46.4 °F 40.4 °F 21.2 °F 37% 30.49 in 10.0 mi SE 13.8 mph - N/A   Clear
9:15 AM 48.2 °F - 21.2 °F 34% 30.48 in 10.0 mi SE 11.5 mph 17.3 mph N/A   Clear
9:55 AM 51.8 °F - 23.0 °F 33% 30.48 in 10.0 mi SE 10.4 mph - N/A   Clear
10:15 AM 51.8 °F - 24.8 °F 35% 30.47 in 10.0 mi SE 11.5 mph - N/A   Clear
10:35 AM 53.6 °F - 23.0 °F 30% 30.47 in 10.0 mi SE 8.1 mph - N/A   Clear
10:55 AM 55.4 °F - 23.0 °F 29% 30.47 in 10.0 mi SE 11.5 mph 16.1 mph N/A   Clear
11:15 AM 57.2 °F - 21.2 °F 25% 30.46 in 10.0 mi SSE 10.4 mph - N/A   Clear
11:35 AM 57.2 °F - 21.2 °F 25% 30.46 in 10.0 mi SSE 8.1 mph 17.3 mph N/A   Clear
11:55 AM 59.0 °F - 23.0 °F 25% 30.45 in 10.0 mi SSE 8.1 mph - N/A   Clear
12:15 PM 60.8 °F - 23.0 °F 23% 30.44 in 10.0 mi SE 10.4 mph 16.1 mph N/A   Clear
12:55 PM 60.8 °F - 23.0 °F 23% 30.41 in 10.0 mi South 12.7 mph 17.3 mph N/A   Clear
1:15 PM 60.8 °F - 23.0 °F 23% 30.40 in 10.0 mi SE 10.4 mph 16.1 mph N/A   Clear
1:55 PM 62.6 °F - 24.8 °F 24% 30.39 in 10.0 mi SSE 11.5 mph - N/A   Clear
2:35 PM 62.6 °F - 24.8 °F 24% 30.37 in 10.0 mi SE 11.5 mph 18.4 mph N/A   Clear
2:55 PM 62.6 °F - 26.6 °F 26% 30.37 in 10.0 mi SE 10.4 mph 17.3 mph N/A   Clear
3:15 PM 64.4 °F - 26.6 °F 24% 30.36 in 10.0 mi SSE 13.8 mph 18.4 mph N/A   Clear
3:35 PM 64.4 °F - 26.6 °F 24% 30.36 in 10.0 mi SSE 11.5 mph 16.1 mph N/A   Clear
3:55 PM 64.4 °F - 26.6 °F 24% 30.36 in 10.0 mi SSE 13.8 mph 17.3 mph N/A   Clear
4:35 PM 62.6 °F - 26.6 °F 26% 30.34 in 10.0 mi SE 11.5 mph 17.3 mph N/A   Clear
4:55 PM 62.6 °F - 26.6 °F 26% 30.35 in 10.0 mi SSE 10.4 mph 16.1 mph N/A   Clear
5:15 PM 60.8 °F - 26.6 °F 27% 30.35 in 10.0 mi SSE 10.4 mph - N/A   Clear
5:35 PM 60.8 °F - 28.4 °F 29% 30.35 in 10.0 mi SSE 8.1 mph - N/A   Clear
5:55 PM 59.0 °F - 28.4 °F 31% 30.36 in 10.0 mi South 5.8 mph - N/A   Clear
7:15 PM 57.2 °F - 28.4 °F 33% 30.36 in 10.0 mi South 6.9 mph - N/A   Clear
7:35 PM 57.2 °F - 28.4 °F 33% 30.37 in 10.0 mi SSE 4.6 mph - N/A   Clear
7:55 PM 55.4 °F - 28.4 °F 36% 30.38 in 10.0 mi SSE 4.6 mph - N/A   Clear
8:15 PM 55.4 °F - 28.4 °F 36% 30.39 in 10.0 mi SSE 6.9 mph - N/A   Clear
8:35 PM 57.2 °F - 28.4 °F 33% 30.39 in 10.0 mi SSE 9.2 mph - N/A   Clear
8:55 PM 57.2 °F - 28.4 °F 33% 30.40 in 10.0 mi SSE 9.2 mph - N/A   Clear
9:35 PM 55.4 °F - 28.4 °F 36% 30.41 in 10.0 mi SSE 11.5 mph - N/A   Clear
9:55 PM 55.4 °F - 28.4 °F 36% 30.41 in 10.0 mi SE 10.4 mph - N/A   Clear
10:15 PM 55.4 °F - 28.4 °F 36% 30.40 in 10.0 mi SE 9.2 mph - N/A   Clear
10:35 PM 53.6 °F - 28.4 °F 38% 30.40 in 10.0 mi SE 8.1 mph - N/A   Clear
11:15 PM 53.6 °F - 28.4 °F 38% 30.39 in 10.0 mi SE 9.2 mph - N/A   Clear
11:35 PM 53.6 °F - 30.2 °F 41% 30.39 in 10.0 mi SE 6.9 mph - N/A   Clear
11:55 PM 53.6 °F - 30.2 °F 41% 30.39 in 10.0 mi SE 10.4 mph 16.1 mph N/A   Clear